HJ-1B

导读

HJ-1B(环境与灾害监测预报小卫星B星)是中国于2008年9月6日在太原卫星发射中心,用长征二号丙运载火箭发射的对地观测卫星,属于HJ-1环境减灾星座,运行于649公里高度的太阳同步轨道。它搭载两台30米分辨率CCD相机和红外扫描辐射计,可与HJ-1A协同实现2天全球重访,主要承担环境监测、灾害预警评估任务,能监测森林火灾、水体污染,反演地表温度,支撑生态与防灾领域遥感应用。

Basic Information
目录编号:
33321
目录名称:
HJ-1B
国际标识:
2008-041B
轨道中心:
EARTH
卫星名称:
HJ-1B
卫星全名:
--
卫星状态:
在轨 (已飞行6491 天)
发射日期:
2008-09-06 UTC
国别 :
中国 (CN)
星等 :
--
Orbit Information
数据来源 国际轨道数据 AOE轨道数据
星历时间 2026-06-15T04:12:12+0800
6小时前
查看轨道信息
2026-06-13T07:00:00+0800
2天前
查看轨道信息
半长轴 6997.028km 6997.05km
偏心率 0.0035821 0.0035721
轨道倾角 97.651° 97.651°
近地点辐角 188.761° 194.714°
升交点赤经 154.949° 153.146°
平近点角 171.298° 193.927°
近地点 593.826km 593.918km
远地点 643.956km 643.908km
周期 97.080分钟 97.081分钟
每日圈数 14.833115 14.833047
Detailed Information
使用方式:
暂无
2D Orbit Map
3D Orbit Map
Orbit Altitude Analysis Chart
Orbit Inclination Analysis Chart
Orbit Comprehensive Analysis Chart
View Comprehensive Chart